When you browse on this site, cookies collect data to enhance your experience and personalize the content and advertising you see.
Visit our Privacy Policy to learn more. By continuing to use the site, you agree to this use of cookies and data.
  • In Latvia
  • List of Countries
  • For 7 days
  • Water Temperature
  • Weather Map
  • Weather Widgets
  • user-avatar
    Login

    Hourly Weather Grzymkowice

    Today, 17 October, Thursday

    Time Temperature Precipitation Wind Pressure Humidity
    00:00 +10°C° 0 mm 5 mps 745 mmHg 73%
    01:00 +10°C° 0 mm 5 mps 745 mmHg 72%
    02:00 +10°C° 0 mm 4 mps 745 mmHg 73%
    03:00 +10°C° 0 mm 4 mps 745 mmHg 73%
    04:00 +10°C° 0 mm 4 mps 745 mmHg 74%
    05:00 +10°C° 0 mm 4 mps 745 mmHg 74%
    06:00 +10°C° 0 mm 4 mps 745 mmHg 75%
    07:00 +10°C° 0 mm 4 mps 745 mmHg 76%
    08:00 +12°C° 0 mm 4 mps 746 mmHg 70%
    09:00 +13°C° 0 mm 4 mps 746 mmHg 63%
    10:00 +15°C° 0 mm 4 mps 746 mmHg 57%
    11:00 +17°C° 0 mm 4 mps 746 mmHg 54%
    12:00 +18°C° 0 mm 4 mps 746 mmHg 51%
    13:00 +19°C° 0 mm 4 mps 746 mmHg 48%
    14:00 +19°C° 0 mm 3 mps 746 mmHg 50%
    15:00 +18°C° 0 mm 3 mps 746 mmHg 53%
    16:00 +17°C° 0 mm 2 mps 746 mmHg 56%
    17:00 +16°C° 0 mm 2 mps 746 mmHg 58%
    18:00 +16°C° 0 mm 3 mps 746 mmHg 61%
    19:00 +14°C° 0 mm 3 mps 746 mmHg 63%
    20:00 +13°C° 0 mm 3 mps 746 mmHg 65%
    21:00 +13°C° 0 mm 3 mps 746 mmHg 66%
    22:00 +12°C° 0 mm 3 mps 746 mmHg 67%
    23:00 +12°C° 0 mm 3 mps 746 mmHg 67%

    Tomorrow, 18 October, Friday

    Time Temperature Precipitation Wind Pressure Humidity
    00:00 +12°C° 0 mm 3 mps 746 mmHg 67%
    01:00 +11°C° 0 mm 3 mps 746 mmHg 67%
    02:00 +11°C° 0 mm 3 mps 746 mmHg 70%
    03:00 +12°C° 0 mm 2 mps 746 mmHg 72%
    04:00 +12°C° 0 mm 2 mps 745 mmHg 75%
    05:00 +12°C° 0 mm 2 mps 746 mmHg 76%
    06:00 +12°C° 0 mm 2 mps 746 mmHg 77%
    07:00 +12°C° 0 mm 2 mps 746 mmHg 78%
    08:00 +13°C° 0 mm 2 mps 746 mmHg 73%
    09:00 +14°C° 0 mm 3 mps 746 mmHg 68%
    10:00 +16°C° 0 mm 3 mps 746 mmHg 63%
    11:00 +17°C° 0 mm 3 mps 745 mmHg 60%
    12:00 +18°C° 0 mm 3 mps 745 mmHg 58%
    13:00 +19°C° 0 mm 3 mps 745 mmHg 56%
    14:00 +19°C° 0 mm 2 mps 744 mmHg 58%
    15:00 +18°C° 0 mm 2 mps 744 mmHg 61%
    16:00 +19°C° 0 mm 1 mps 744 mmHg 63%
    17:00 +17°C° 0 mm 2 mps 744 mmHg 65%
    18:00 +16°C° 0 mm 2 mps 744 mmHg 66%
    19:00 +15°C° 0 mm 2 mps 744 mmHg 68%
    20:00 +15°C° 0 mm 2 mps 744 mmHg 69%
    21:00 +15°C° 0 mm 2 mps 744 mmHg 70%
    22:00 +14°C° 0 mm 2 mps 744 mmHg 72%
    23:00 +14°C° 0 mm 2 mps 744 mmHg 71%

    Day after tomorrow, 19 October, Saturday

    Time Temperature Precipitation Wind Pressure Humidity
    00:00 +14°C° 0 mm 2 mps 744 mmHg 71%
    01:00 +13°C° 0 mm 2 mps 744 mmHg 71%
    02:00 +13°C° 0 mm 2 mps 743 mmHg 71%
    03:00 +13°C° 0 mm 2 mps 743 mmHg 71%
    04:00 +13°C° 0 mm 2 mps 743 mmHg 71%
    05:00 +13°C° 0 mm 2 mps 743 mmHg 72%
    06:00 +13°C° 0 mm 2 mps 743 mmHg 72%
    07:00 +13°C° 0 mm 1 mps 743 mmHg 73%
    08:00 +15°C° 0 mm 1 mps 744 mmHg 68%
    09:00 +16°C° 0 mm 1 mps 744 mmHg 63%
    10:00 +19°C° 0 mm 1 mps 744 mmHg 59%
    11:00 +18°C° 0 mm 2 mps 744 mmHg 57%
    12:00 +19°C° 0 mm 2 mps 744 mmHg 55%
    13:00 +20°C° 0 mm 2 mps 744 mmHg 54%
    14:00 +19°C° 0 mm 2 mps 743 mmHg 57%
    15:00 +18°C° 0 mm 2 mps 743 mmHg 60%
    16:00 +19°C° 0 mm 1 mps 743 mmHg 63%
    17:00 +17°C° 0 mm 2 mps 743 mmHg 66%
    18:00 +16°C° 0 mm 2 mps 744 mmHg 69%
    19:00 +15°C° 0 mm 2 mps 744 mmHg 72%
    20:00 +14°C° 0 mm 2 mps 744 mmHg 73%
    21:00 +14°C° 0 mm 2 mps 744 mmHg 75%
    22:00 +14°C° 0 mm 2 mps 744 mmHg 77%
    23:00 +13°C° 0 mm 2 mps 744 mmHg 78%

    20 October, Sunday

    Time Temperature Precipitation Wind Pressure Humidity
    00:00 +13°C° 0 mm 2 mps 744 mmHg 79%
    01:00 +13°C° 0 mm 2 mps 744 mmHg 80%
    02:00 +13°C° 0 mm 2 mps 744 mmHg 80%
    03:00 +13°C° 0 mm 2 mps 744 mmHg 81%
    04:00 +12°C° 0 mm 3 mps 744 mmHg 82%
    05:00 +12°C° 0 mm 3 mps 743 mmHg 82%
    06:00 +12°C° 0 mm 3 mps 743 mmHg 83%
    07:00 +12°C° 0 mm 3 mps 743 mmHg 83%
    08:00 +13°C° 0 mm 3 mps 743 mmHg 76%
    09:00 +16°C° 0 mm 3 mps 743 mmHg 68%
    10:00 +18°C° 0 mm 3 mps 744 mmHg 61%
    11:00 +19°C° 0 mm 3 mps 743 mmHg 57%
    12:00 +20°C° 0 mm 3 mps 743 mmHg 54%
    13:00 +21°C° 0 mm 3 mps 743 mmHg 50%
    14:00 +20°C° 0 mm 3 mps 743 mmHg 55%
    15:00 +19°C° 0 mm 3 mps 743 mmHg 60%
    16:00 +18°C° 0 mm 3 mps 743 mmHg 64%
    17:00 +17°C° 0 mm 3 mps 744 mmHg 68%
    18:00 +16°C° 0 mm 3 mps 744 mmHg 72%
    19:00 +15°C° 0 mm 2 mps 745 mmHg 76%
    20:00 +15°C° 0 mm 2 mps 745 mmHg 79%
    21:00 +14°C° 0 mm 2 mps 745 mmHg 82%
    22:00 +14°C° 0 mm 2 mps 746 mmHg 85%
    23:00 +13°C° 0 mm 2 mps 746 mmHg 87%

    21 October, Monday

    Time Temperature Precipitation Wind Pressure Humidity
    00:00 +12°C° 0 mm 3 mps 747 mmHg 89%
    01:00 +11°C° 0 mm 3 mps 747 mmHg 91%
    02:00 +12°C° 0 mm 2 mps 747 mmHg 92%
    03:00 +12°C° 0 mm 2 mps 748 mmHg 93%
    04:00 +10°C° 0 mm 2 mps 748 mmHg 94%
    05:00 +10°C° 0 mm 2 mps 748 mmHg 94%
    06:00 +10°C° 0 mm 2 mps 749 mmHg 95%
    07:00 +11°C° 0 mm 1 mps 749 mmHg 95%
    08:00 +13°C° 0 mm 2 mps 750 mmHg 88%
    09:00 +14°C° 0 mm 2 mps 750 mmHg 82%
    10:00 +16°C° 0 mm 2 mps 750 mmHg 76%
    11:00 +16°C° 0 mm 2 mps 750 mmHg 72%
    12:00 +17°C° 0 mm 2 mps 750 mmHg 68%
    13:00 +18°C° 0 mm 2 mps 750 mmHg 65%
    14:00 +17°C° 0 mm 2 mps 750 mmHg 67%
    15:00 +17°C° 0 mm 2 mps 750 mmHg 69%
    16:00 +16°C° 0 mm 2 mps 750 mmHg 71%
    17:00 +15°C° 0 mm 2 mps 751 mmHg 74%
    18:00 +14°C° 0 mm 2 mps 751 mmHg 77%
    19:00 +13°C° 0 mm 2 mps 751 mmHg 81%
    20:00 +13°C° 0 mm 2 mps 751 mmHg 83%
    21:00 +13°C° 0 mm 2 mps 751 mmHg 86%
    22:00 +12°C° 0 mm 2 mps 752 mmHg 88%
    23:00 +12°C° 0 mm 2 mps 752 mmHg 89%

    22 October, Tuesday

    Time Temperature Precipitation Wind Pressure Humidity
    00:00 +12°C° 0 mm 2 mps 752 mmHg 90%
    01:00 +10°C° 0 mm 2 mps 752 mmHg 91%
    02:00 +10°C° 0 mm 2 mps 752 mmHg 92%
    03:00 +10°C° 0 mm 2 mps 751 mmHg 92%
    04:00 +10°C° 0 mm 2 mps 751 mmHg 93%
    05:00 +10°C° 0 mm 3 mps 751 mmHg 92%
    06:00 +10°C° 0 mm 3 mps 751 mmHg 92%
    07:00 +10°C° 0 mm 3 mps 751 mmHg 91%
    08:00 +11°C° 0 mm 3 mps 751 mmHg 87%
    09:00 +12°C° 0 mm 4 mps 751 mmHg 83%
    10:00 +13°C° 0 mm 4 mps 752 mmHg 78%
    11:00 +13°C° 0.1 mm 4 mps 752 mmHg 79%
    12:00 +13°C° 0.1 mm 4 mps 751 mmHg 80%
    13:00 +12°C° 0.1 mm 5 mps 751 mmHg 81%
    14:00 +12°C° 0.4 mm 5 mps 751 mmHg 83%
    15:00 +12°C° 0.4 mm 5 mps 751 mmHg 84%
    16:00 +10°C° 0.4 mm 5 mps 751 mmHg 86%
    17:00 +10°C° 0.4 mm 5 mps 751 mmHg 86%
    18:00 +10°C° 0.4 mm 5 mps 751 mmHg 86%
    19:00 +10°C° 0.4 mm 5 mps 751 mmHg 87%
    20:00 +11°C° 0.1 mm 4 mps 752 mmHg 86%
    21:00 +11°C° 0.1 mm 4 mps 752 mmHg 85%
    22:00 +11°C° 0.1 mm 4 mps 752 mmHg 85%
    23:00 +11°C° 0 mm 4 mps 752 mmHg 83%
    Show more